[[{"header":{"parameterUnit":"m.s-1","parameterCategory":1,"la1":30.2991,"la2":30.254,"lo1":-89.0895,"lo2":-89.0444,"dy":0.0017,"dx":0.0017,"nx":28,"ny":28,"refTime":"2023-09-24T09:00:00:Z","depth":0,"parameterNumber":2,"parameterNumberName":"U-component_of_WINDS"},"data":[0,0,0,0,0,0,0,0,0,0,0,0,0,0,0,0,0,0,0,0,0,0,0,0,0,0,0,0,0,0,0,0,0,0,0,0,0,0,0,0,0,0,0,0,0,0,0,0,0,0,0,0,0,0,0,0,0,0,0.7008,0.7009,0,0.7097,0.7098,0.7099,0.7141,0.7141,0.7141,0.7141,0.723,0.7232,0.7234,0,0,0,0,0,0,0,0,0,0,0,0,0,0.6872,0.6875,0.7008,0.7009,0.701,0.7097,0.7098,0.7099,0.7141,0.7141,0.7141,0.7141,0.7229,0.7232,0.7235,0,0,0,0,0,0,0,0,0,0,0,0,0,0.6943,0.6875,0.7008,0.7042,0.7045,0.7097,0.7098,0.71,0.7141,0.7141,0.7141,0.7141,0.7228,0.7232,0.7235,0.7259,0,0,0.7246,0.7248,0,0,0,0,0,0,0,0,0.6939,0.6948,0.7035,0.7039,0.7044,0.7108,0.7083,0.7153,0.7141,0.7105,0.7141,0.7141,0.7189,0.7196,0.7213,0.7263,0.7267,0.7247,0.7249,0.725,0.7251,0,0,0,0,0,0,0,0.6934,0.6944,0.7043,0.7037,0.7042,0.7051,0.7061,0.7096,0.7146,0.7108,0.7111,0.7121,0.7191,0.7209,0.7215,0.7269,0.7246,0.725,0.7252,0.7253,0.7343,0.7343,0,0,0,0,0,0,0.6924,0.694,0.7041,0.7046,0.699,0.7054,0.7065,0.7087,0.7146,0.7155,0.7121,0.7123,0.7203,0.7211,0.7218,0.7251,0.725,0.7254,0.7256,0.7343,0.7343,0.7343,0,0,0,0,0,0,0.6921,0.6933,0.7037,0.6994,0.7008,0.7056,0.7081,0.7089,0.7107,0.7156,0.7165,0.713,0.7203,0.7213,0.7249,0.7254,0.7255,0.7259,0.7343,0.7343,0.7343,0.7315,0,0,0,0,0,0,0.6917,0.6931,0.6941,0.6994,0.701,0.7066,0.7081,0.7091,0.7113,0.7116,0.7167,0.7175,0.7204,0.7243,0.7252,0.7259,0.7261,0.7342,0.7343,0.7343,0.7316,0.7314,0.7313,0,0,0,0,0,0.6912,0.693,0.6942,0.6954,0.7024,0.7067,0.7076,0.7109,0.7114,0.7124,0.7155,0.7174,0.7252,0.7246,0.7257,0.7265,0.7342,0.7343,0.7343,0.7316,0.7315,0.7313,0,0,0,0,0,0,0.6876,0.6937,0.6951,0.6987,0.7021,0.7074,0.7088,0.7106,0.714,0.7141,0.718,0.7191,0.7223,0.7248,0.7241,0.7292,0.7299,0.7301,0.7275,0.7273,0.7272,0.7266,0.7265,0,0,0,0,0,0.6872,0.6902,0.6954,0.698,0.6997,0.7039,0.7059,0.7082,0.7119,0.7133,0.7167,0.7202,0.7235,0.7255,0.7288,0.7319,0.7331,0.733,0.7329,0.7327,0.7329,0.7347,0.7348,0.7345,0.7345,0.7345,0,0,0.6865,0.6902,0.6918,0.6974,0.7003,0.7033,0.7051,0.7082,0.7104,0.7138,0.7174,0.72,0.7241,0.7275,0.7291,0.7296,0.7332,0.7328,0.7326,0.7329,0.7348,0.7348,0.7348,0.7345,0.7345,0.7345,0,0,0.6866,0.6897,0.6923,0.6952,0.6996,0.7024,0.703,0.708,0.7099,0.7136,0.7161,0.7188,0.7243,0.7272,0.7293,0.7305,0.7323,0.7314,0.7308,0.7325,0.7325,0.7326,0.733,0.7331,0.7316,0.7316,0.7316,0,0.6851,0.6898,0.6933,0.6963,0.6986,0.7018,0.7044,0.707,0.7123,0.7138,0.7143,0.7213,0.7243,0.7283,0.7286,0.7302,0.731,0.7309,0.7323,0.7323,0.7324,0.7329,0.733,0.7315,0.7315,0.7315,0.7315,0,0.6877,0.6909,0.6924,0.6975,0.7,0.7027,0.7066,0.7087,0.7107,0.7134,0.717,0.7208,0.7248,0.7259,0.7279,0.7303,0.7304,0.7315,0.7323,0.7323,0.7327,0.7329,0.7313,0.7313,0.7314,0.7314,0,0,0.6859,0.6929,0.6934,0.6957,0.7008,0.7033,0.7062,0.7102,0.7119,0.7154,0.7179,0.7224,0.7235,0.7259,0.7282,0.7297,0.7304,0.7307,0.7308,0.7305,0.7332,0.7324,0.7326,0.7316,0.7317,0.7317,0.7329,0,0.6868,0.6922,0.6954,0.6994,0.7024,0.7054,0.7079,0.7112,0.7138,0.7167,0.7195,0.7227,0.7238,0.7253,0.7269,0.73,0.731,0.7299,0.7339,0.734,0.7328,0.7328,0.732,0.7329,0.7331,0.7331,0.7332,0,0.6886,0.6921,0.6964,0.7012,0.7026,0.7047,0.7087,0.7114,0.7152,0.717,0.7197,0.722,0.725,0.7255,0.7298,0.7289,0.7307,0.7325,0.7326,0.7331,0.7336,0.7334,0.7333,0.7335,0.7335,0.7335,0.7334,0,0.687,0.6927,0.696,0.6979,0.7035,0.705,0.7074,0.7112,0.7134,0.7168,0.7183,0.722,0.724,0.7268,0.73,0.73,0.7339,0.7346,0.7354,0.7353,0.7361,0.736,0.7364,0.7372,0.7372,0.7372,0.7372,0,0.6877,0.6902,0.6953,0.6974,0.7003,0.7039,0.7066,0.7093,0.7126,0.7152,0.718,0.7203,0.7244,0.7272,0.7297,0.7328,0.7337,0.7352,0.7359,0.735,0.7348,0.7363,0.7363,0.7372,0.7372,0.7372,0.7372,0,0.6863,0.6899,0.6937,0.6987,0.7,0.7019,0.7062,0.7082,0.711,0.7142,0.7151,0.7194,0.7228,0.7263,0.7309,0.7326,0.7356,0.7365,0.7344,0.7347,0.7353,0.7352,0.7366,0.737,0.7375,0.7375,0.7375,0,0.6865,0.6886,0.6938,0.6957,0.6981,0.7012,0.7035,0.7071,0.7093,0.7138,0.7153,0.719,0.7221,0.7275,0.7309,0.7344,0.7354,0.7357,0.736,0.735,0.7355,0.7353,0.7356,0.7356,0.7355,0.7355,0.7355,0,0.6866,0.6883,0.6915,0.6953,0.6979,0.7011,0.7044,0.7058,0.71,0.7124,0.716,0.7184,0.7231,0.7267,0.7306,0.733,0.735,0.7354,0.7358,0.7349,0.7336,0.7344,0.7341,0.7353,0.7354,0.7354,0.7354,0.7354,0.6861,0.688,0.692,0.6955,0.6983,0.7013,0.7035,0.7065,0.7096,0.7138,0.7157,0.7193,0.723,0.7285,0.7308,0.7337,0.7342,0.7347,0.7348,0.7349,0.7347,0.7331,0.7344,0.7344,0.7344,0.7344,0.7344,0,0.6863,0.689,0.6922,0.6967,0.6994,0.701,0.7047,0.7068,0.71,0.7133,0.7164,0.7205,0.7239,0.7276,0.7313,0.7329,0.7338,0.7337,0.7337,0.7342,0.7341,0.7334,0.7329,0.7329,0.7329,0.7329,0.7329,0.7329,0.6868,0.6902,0.6923,0.697,0.6997,0.7033,0.7053,0.708,0.7107,0.7152,0.7181,0.7205,0.724,0.7279,0.7312,0.7322,0.7334,0.733,0.7342,0.7341,0.7342,0.7343,0.7337,0.7332,0.7332,0.7342,0.7342,0.7342]},{"header":{"parameterUnit":"m.s-1","parameterCategory":1,"la1":30.2991,"la2":30.254,"lo1":-89.0895,"lo2":-89.0444,"dy":0.0017,"dx":0.0017,"nx":28,"ny":28,"refTime":"2023-09-24T09:00:00:Z","depth":0,"parameterNumber":3,"parameterNumberName":"V-component_of_WINDS"},"data":[0,0,0,0,0,0,0,0,0,0,0,0,0,0,0,0,0,0,0,0,0,0,0,0,0,0,0,0,0,0,0,0,0,0,0,0,0,0,0,0,0,0,0,0,0,0,0,0,0,0,0,0,0,0,0,0,0,0,-0.4533,-0.4531,0,-0.4352,-0.435,-0.4348,-0.4313,-0.4315,-0.4316,-0.4318,-0.4116,-0.411,-0.4103,0,0,0,0,0,0,0,0,0,0,0,0,0,-0.4834,-0.4829,-0.4534,-0.4531,-0.4529,-0.4352,-0.435,-0.4347,-0.4313,-0.4315,-0.4317,-0.4318,-0.4118,-0.4111,-0.4102,0,0,0,0,0,0,0,0,0,0,0,0,0,-0.4683,-0.4827,-0.4534,-0.4491,-0.4485,-0.4353,-0.435,-0.4346,-0.4313,-0.4315,-0.4317,-0.4319,-0.4121,-0.4111,-0.4101,-0.3994,0,0,-0.407,-0.4066,0,0,0,0,0,0,0,0,-0.4691,-0.4672,-0.45,-0.4494,-0.4487,-0.4358,-0.4382,-0.4228,-0.4312,-0.4378,-0.4318,-0.432,-0.4194,-0.4178,-0.4138,-0.3984,-0.3976,-0.4069,-0.4063,-0.4059,-0.4056,0,0,0,0,0,0,0,-0.4702,-0.4679,-0.4461,-0.4497,-0.4489,-0.4475,-0.4456,-0.4352,-0.4275,-0.4372,-0.4369,-0.4349,-0.4191,-0.4148,-0.4133,-0.3973,-0.407,-0.4061,-0.4054,-0.405,-0.3715,-0.3712,0,0,0,0,0,0,-0.4722,-0.4688,-0.4467,-0.4456,-0.4597,-0.4468,-0.4447,-0.4397,-0.4276,-0.426,-0.4347,-0.4348,-0.4164,-0.4145,-0.4126,-0.3989,-0.4059,-0.4049,-0.4044,-0.3718,-0.3714,-0.3711,0,0,0,0,0,0,-0.4729,-0.4703,-0.4474,-0.4571,-0.4541,-0.4461,-0.4405,-0.4392,-0.435,-0.4258,-0.4242,-0.4319,-0.4165,-0.414,-0.4027,-0.3981,-0.4045,-0.4036,-0.3721,-0.3717,-0.3713,-0.3715,0,0,0,0,0,0,-0.4738,-0.4705,-0.4668,-0.4571,-0.4536,-0.4383,-0.4402,-0.4387,-0.4334,-0.4333,-0.4227,-0.4211,-0.4165,-0.4042,-0.4017,-0.3968,-0.4028,-0.3725,-0.3719,-0.3714,-0.3719,-0.3712,-0.3705,0,0,0,0,0,-0.4748,-0.4673,-0.4666,-0.464,-0.4488,-0.4381,-0.436,-0.4313,-0.4331,-0.4289,-0.4229,-0.4215,-0.3991,-0.4031,-0.4002,-0.395,-0.3727,-0.3721,-0.3715,-0.3722,-0.3713,-0.3706,0,0,0,0,0,0,-0.4763,-0.466,-0.4651,-0.4544,-0.4472,-0.4375,-0.4322,-0.4306,-0.4224,-0.4226,-0.4166,-0.4142,-0.4031,-0.3979,-0.4025,-0.3836,-0.3859,-0.3847,-0.3875,-0.3866,-0.3859,-0.3872,-0.4019,0,0,0,0,0,-0.4754,-0.4681,-0.4593,-0.4506,-0.4471,-0.4403,-0.4354,-0.4325,-0.4245,-0.4213,-0.4145,-0.4065,-0.3975,-0.3918,-0.3831,-0.3712,-0.3684,-0.3661,-0.3654,-0.3649,-0.3638,-0.3566,-0.3553,-0.369,-0.369,-0.3691,0,0,-0.4734,-0.4669,-0.4625,-0.4507,-0.4448,-0.4368,-0.4377,-0.4293,-0.423,-0.4199,-0.4088,-0.4035,-0.394,-0.3822,-0.3767,-0.3775,-0.3594,-0.3641,-0.3638,-0.3629,-0.3558,-0.3545,-0.3533,-0.3686,-0.3687,-0.3688,0,0,-0.4656,-0.4602,-0.4522,-0.4463,-0.4375,-0.433,-0.4311,-0.4216,-0.4181,-0.407,-0.4043,-0.3965,-0.3815,-0.3748,-0.3694,-0.3588,-0.3569,-0.3561,-0.3525,-0.3455,-0.3444,-0.3434,-0.3392,-0.3378,-0.3551,-0.3551,-0.3551,0,-0.4641,-0.4524,-0.4482,-0.4398,-0.4344,-0.4317,-0.4231,-0.4174,-0.406,-0.4021,-0.4034,-0.3842,-0.3777,-0.3641,-0.3615,-0.3573,-0.3544,-0.3572,-0.345,-0.344,-0.3429,-0.3388,-0.3373,-0.355,-0.355,-0.355,-0.355,0,-0.4507,-0.4426,-0.4371,-0.4267,-0.4206,-0.4122,-0.4061,-0.4005,-0.3979,-0.3931,-0.3815,-0.3736,-0.3631,-0.3596,-0.3569,-0.3454,-0.3462,-0.3463,-0.3484,-0.3416,-0.3376,-0.3361,-0.3549,-0.3549,-0.3549,-0.355,0,0,-0.4433,-0.4306,-0.4286,-0.4236,-0.4136,-0.4069,-0.3981,-0.3883,-0.3834,-0.3755,-0.3675,-0.3548,-0.3548,-0.3487,-0.3451,-0.3391,-0.3306,-0.3398,-0.3395,-0.338,-0.3168,-0.3166,-0.3149,-0.3294,-0.3291,-0.3289,-0.3175,0,-0.434,-0.4189,-0.4146,-0.4015,-0.3936,-0.3908,-0.383,-0.3756,-0.3708,-0.3629,-0.3573,-0.3483,-0.3492,-0.3454,-0.3393,-0.333,-0.3262,-0.3337,-0.3213,-0.3209,-0.3236,-0.3128,-0.3126,-0.3023,-0.3159,-0.3157,-0.3155,0,-0.4212,-0.4135,-0.3998,-0.3905,-0.387,-0.3802,-0.3706,-0.3634,-0.3547,-0.3516,-0.3447,-0.3417,-0.3317,-0.3346,-0.3204,-0.3257,-0.3203,-0.3164,-0.3158,-0.3142,-0.3176,-0.3105,-0.2989,-0.2972,-0.313,-0.3132,-0.3134,0,-0.4167,-0.4028,-0.3927,-0.3886,-0.3776,-0.3728,-0.3679,-0.3596,-0.3538,-0.3453,-0.3413,-0.3316,-0.3262,-0.3184,-0.3126,-0.3153,-0.2987,-0.3013,-0.2953,-0.2954,-0.2917,-0.2919,-0.2786,-0.2888,-0.2889,-0.2889,-0.2889,0,-0.4066,-0.3981,-0.3905,-0.3843,-0.3745,-0.3695,-0.3598,-0.3547,-0.3472,-0.3394,-0.3362,-0.3289,-0.3218,-0.3133,-0.3086,-0.2973,-0.2949,-0.2916,-0.2904,-0.2918,-0.2921,-0.2879,-0.2883,-0.2885,-0.2886,-0.2887,-0.2887,0,-0.3998,-0.3945,-0.3832,-0.3738,-0.3712,-0.3643,-0.356,-0.3494,-0.3445,-0.3346,-0.332,-0.324,-0.3138,-0.3074,-0.2943,-0.2911,-0.2785,-0.2777,-0.2816,-0.281,-0.2752,-0.2757,-0.2585,-0.2557,-0.2682,-0.2681,-0.268,0,-0.3936,-0.3871,-0.377,-0.3719,-0.367,-0.3587,-0.3529,-0.3475,-0.3414,-0.331,-0.3256,-0.3153,-0.3068,-0.2905,-0.2831,-0.2729,-0.2716,-0.2663,-0.27,-0.2714,-0.271,-0.2713,-0.2704,-0.2655,-0.2654,-0.2653,-0.2653,0,-0.3829,-0.3806,-0.3727,-0.3637,-0.357,-0.3495,-0.342,-0.3377,-0.3309,-0.3242,-0.314,-0.3074,-0.2942,-0.2837,-0.2729,-0.2671,-0.2648,-0.2642,-0.2622,-0.2633,-0.2657,-0.2639,-0.2795,-0.2645,-0.2646,-0.2647,-0.2647,-0.2647,-0.3759,-0.3699,-0.3619,-0.353,-0.3469,-0.3399,-0.3332,-0.3276,-0.3191,-0.3083,-0.3055,-0.2946,-0.2856,-0.2709,-0.2649,-0.2559,-0.2565,-0.2538,-0.253,-0.2523,-0.252,-0.2675,-0.2539,-0.2539,-0.254,-0.254,-0.254,0,-0.3648,-0.3596,-0.3515,-0.3412,-0.3341,-0.3332,-0.3247,-0.3186,-0.3093,-0.3014,-0.2931,-0.2811,-0.2709,-0.2628,-0.2522,-0.2465,-0.2451,-0.2438,-0.2439,-0.2425,-0.2522,-0.2549,-0.2451,-0.2451,-0.2451,-0.2451,-0.2451,-0.2451,-0.3582,-0.3478,-0.3445,-0.3307,-0.3253,-0.3151,-0.3103,-0.3035,-0.2972,-0.2841,-0.2758,-0.2708,-0.2625,-0.2513,-0.2416,-0.2394,-0.2354,-0.2343,-0.2318,-0.241,-0.2419,-0.2428,-0.2453,-0.2336,-0.2336,-0.2228,-0.2227,-0.2227]}]]